Location: Unspecified
(29.9680°N, 0.0000°E)
Time: 16:10:42
(UTC+00:00)

A-11 Canister half - Pass Details

Date: 20 June 2019
Orbit: 1526 x 1683 km, 47.3° (Epoch: 21 July)

Event Time Altitude Azimuth Distance (km) Brightness Sun altitude
Rises 09:43:10 0° 308° (NW) 4,679 11.3 58.5°
Reaches altitude 10° 09:46:34 10° 317° (NW) 3,693 10.9 59.3°
Maximum altitude 09:55:02 37° 23° (NNE) 2,209 10.6 61.1°
Drops below altitude 10° 10:03:34 10° 88° (E) 3,737 11.6 62.9°
Sets 10:07:00 0° 97° (E) 4,740 12.0 63.7°
